Regional Weather Roundup
Issued by NWS Midland/Odessa, TX

Skip options and go directly to product.
Home | Oldest Version | Next Version | Current Version | All | Text Only | Save Text | Print | Product List | Glossary On

Skip product version selection by date and time.   
597
ASUS44 KMAF 261410
RWRMAF
MIDLAND AREA WEATHER ROUNDUP
NATIONAL WEATHER SERVICE MIDLAND TX
900 AM CDT TUE AUG 26 2014

...IN SOUTHWEST TEXAS AND SOUTHEAST NEW MEXICO...

CITY           SKY/WX    TMP DP  RH WIND       PRES   REMARKS
ALPINE         SUNNY     71  57  62 CALM      30.25S
ANDREWS        FAIR      73  62  70 N5        30.14S
ARTESIA        NOT AVBL
BIG SPRING     PTSUNNY   82  56  41 S9        30.12S
CARLSBAD       PTSUNNY   72  65  78 W3        30.14R
DRYDEN           N/A     83  62  49 NE6       30.06R
FORT STOCKTON  PTSUNNY   74  61  63 CALM      30.12R
GUAD PASS      CLOUDY    71  54  54 VRB3      30.28R
HOBBS          SUNNY     68  64  88 N6        30.17R
MARFA          SUNNY     70  57  64 N3        30.24S
MIDLAND AIRPK  MOSUNNY   82  58  44 S6        30.12R
MIDLAND INTL   MOSUNNY   79  59  50 S5        30.11R
ODESSA         MOSUNNY   78  59  51 SW6       30.13R
PECOS          PTSUNNY   74  66  78 N5        30.10R
PRESIDIO       FAIR      82  58  43 CALM      30.08S
SEMINOLE       PTSUNNY   74  59  59 N5        30.17R
SNYDER         SUNNY     79  58  49 S6        30.11R
WINK           PTSUNNY   81  66  60 VRB3      30.10R
$$
...OTHER STATIONS IN TEXAS...

CITY           SKY/WX    TMP DP  RH WIND       PRES   REMARKS
ABILENE        SUNNY     83  61  47 S9        30.07R
AMARILLO       LGT RAIN  70  60  70 S9        30.18S
AUSTIN         MOSUNNY   83  71  67 SW3       30.01R
BROWNSVILLE    SUNNY     84  77  79 CALM      29.95R
CORPUS CHRISTI MOSUNNY   82  76  81 NW3       29.97R
DALLAS FTW     MOSUNNY   83  71  67 SE3       30.03R
DEL RIO        SUNNY     82  68  62 E9        30.00R
EL PASO        CLOUDY    73  58  59 S7        30.16R
HOUSTON INT    MOSUNNY   81  72  74 NE8       30.00R
LUBBOCK        PTSUNNY   75  64  68 NE8       30.15R
SAN ANGELO     SUNNY     78  63  59 S6        30.08R
SAN ANTONIO    PTSUNNY   82  71  69 CALM      30.02R
WACO           SUNNY     84  68  58 SW5       30.01S
WICHITA FALLS  NOT AVBL
$$
...OTHER LOCATIONS IN NEW MEXICO...

CITY           SKY/WX    TMP DP  RH WIND       PRES   REMARKS
ALAMAGORDO     PTSUNNY   68  57  68 NW3       30.18R
ALBUQUERQUE    PTSUNNY   67  52  58 NW3       30.24R
CANNON AFB     PTSUNNY   68  60  75 E8        30.22R
CLOVIS           N/A     66  57  72 CALM      30.24R
HOLLOMAN AFB   PTSUNNY   71  59  66 E2        30.16R
ROSWELL        MOSUNNY   69  63  81 CALM      30.16R
RUIDOSO        PTSUNNY   61  54  77 CALM      30.36R
SANTA FE       PTSUNNY   62  48  60 N3        30.29R
TRUTH OR CONSE PTSUNNY   69  55  60 W5        30.20R
TUCUMCARI      PTSUNNY   71  56  58 SE7       30.18R
$$

USA.gov is the U.S. government's official web portal to all federal, state and local government web resources and services.